#timestamp,LO_Frequency,Hit,StdDev 
1587769215.4,286047016.0,N
1587769235.3,286047017.4,N
1587769255.1,286047019.1,N
1587769256.0,286047019.1,N
1587769275.8,286047016.0,N
1587769295.7,286047014.4,N
1587769315.5,286047021.8,N
1587769335.3,286047023.9,N
1587769355.2,286047027.7,Y
1587769375.0,286047018.7,P
1587769375.9,286047018.7,P
1587769395.8,286047015.0,P
1587769415.6,286047014.3,Y
1587769435.4,286046997.1,P
1587769455.3,286046996.7,N
1587769475.1,286047000.6,N
1587769495.9,286047002.8,N
1587769515.7,286047003.1,N
1587769535.5,286047006.2,N
1587769555.4,286047007.2,N
1587769575.2,286047006.0,N
1587769595.0,286047004.3,N
1587769595.9,286047004.3,N
1587769615.8,286047001.6,N
1587769635.6,286047001.8,N
1587769655.5,286047004.8,N
1587769675.3,286047006.0,N
1587769695.1,286047005.8,N
1587769715.9,286047006.1,N
1587769735.7,286047009.9,N
1587769755.5,286047010.5,N
1587769775.4,286047010.9,N
1587769795.2,286047009.9,N
1587769815.1,286047012.1,N
1587769816.0,286047012.1,N
1587769835.8,286047009.3,N
1587769855.6,286047010.4,N
1587769875.5,286047006.8,N
1587769895.3,286047006.5,N
1587769915.1,286047010.0,N
1587769935.9,286047011.4,N
1587769955.7,286047017.0,Y
1587769975.6,286047010.9,P
1587769995.4,286047013.4,P
1587770015.2,286047011.4,P
1587770035.1,286047009.9,Y
1587770036.0,286047009.9,P
1587770055.8,286046999.5,N
1587770075.7,286046998.4,N
1587770095.5,286046999.1,N
1587770115.3,286047000.2,N
1587770135.2,286046999.8,N
1587770155.9,286046999.7,N
1587770175.7,286047003.9,N
1587770195.6,286047005.1,N
1587770215.4,286047009.2,N
1587770235.3,286047009.1,N
1587770255.1,286047007.9,N
1587770256.0,286047007.9,N
1587770275.8,286047009.3,N
1587770295.7,286047011.7,N
1587770315.5,286047011.4,N
1587770335.3,286047011.2,N
1587770355.2,286047012.4,N
1587770375.0,286047009.8,N
1587770375.9,286047009.8,N
1587770395.8,286047012.3,N
1587770415.6,286047011.4,N
1587770435.4,286047009.6,N
1587770455.3,286047009.8,N
1587770475.1,286047007.9,N
1587770495.8,286047010.2,N
1587770515.7,286047010.3,N
1587770535.5,286047009.6,N
1587770555.4,286047011.6,N
1587770575.2,286047014.3,Y
1587770595.0,286047012.2,P
1587770595.9,286047012.2,P
1587770615.8,286047016.7,P
1587770635.6,286047020.1,Y
1587770655.5,286047006.4,P
1587770675.3,286047005.8,N
1587770695.1,286047004.4,N
1587770715.9,286047000.4,N
1587770735.7,286047002.3,N
1587770755.5,286047004.3,N
1587770775.4,286047002.7,N
1587770795.2,286047000.0,N
1587770815.0,286047002.8,N
1587770816.0,286047002.8,N
1587770835.8,286047000.0,N
1587770855.6,286047003.8,N
1587770875.5,286047003.2,N
1587770895.3,286047001.3,N
1587770915.1,286047001.5,N
1587770935.9,286047003.6,N
1587770955.7,286047003.8,N
1587770975.6,286047001.6,N
1587770995.4,286046998.2,N
1587771015.2,286047000.3,N
1587771035.1,286047002.4,N
1587771036.0,286047002.4,N
1587771055.8,286047001.7,N
1587771075.6,286047002.0,N
1587771095.5,286047001.9,N
1587771115.3,286047001.3,N
1587771135.2,286047001.3,N
1587771155.9,286047006.3,N
1587771175.7,286047009.5,Y
1587771195.6,286047008.6,P
1587771215.4,286047012.1,P
1587771235.2,286047013.8,P
1587771255.1,286047014.8,Y
1587771256.0,286047014.8,P
1587771275.8,286047007.3,N
1587771295.7,286047006.2,N
1587771315.5,286047012.4,Y
1587771335.3,286047001.6,P
1587771355.2,286047005.8,N
1587771375.0,286047002.5,N
1587771375.9,286047002.5,N
1587771395.8,286047000.9,N
1587771415.6,286046998.1,N
1587771435.5,286046997.2,N
1587771455.3,286046996.7,N
1587771475.1,286046995.9,N
1587771495.9,286046996.3,N
1587771515.7,286046993.6,N
1587771535.6,286046993.6,N
1587771555.4,286046997.3,N
1587771575.2,286046999.1,N
1587771595.1,286047000.7,N
1587771596.0,286047000.7,N
1587771615.8,286046997.7,N
1587771635.6,286046998.0,N
1587771655.5,286046998.5,N
1587771675.3,286047003.7,N
1587771695.2,286047008.4,N
1587771715.9,286047008.3,N
1587771735.7,286047006.5,N
1587771755.6,286047001.6,N
1587771775.4,286047003.9,N
1587771795.2,286047003.6,N
1587771815.1,286047000.0,N
1587771816.0,286047000.0,N
1587771835.8,286046999.8,N
1587771855.7,286047001.6,N
1587771875.5,286047009.3,N
1587771895.4,286047013.9,Y
1587771915.2,286047005.6,P
1587771935.1,286047006.0,N
1587771936.0,286047006.0,N
1587771955.8,286047002.9,N
1587771975.7,286047004.3,N
1587771995.5,286047002.8,N
1587772015.3,286047004.3,N
1587772035.2,286047009.9,Y
1587772055.0,286047009.2,P
1587772055.9,286047009.2,P
1587772075.7,286047006.7,N
1587772095.6,286047006.1,N
1587772115.4,286047006.2,Y
1587772135.3,286047002.3,P
1587772155.1,286047004.0,N
1587772175.8,286047000.6,N
1587772195.7,286046999.1,N
1587772215.5,286046999.3,N
1587772235.4,286047001.4,N
1587772255.2,286047002.3,N
1587772275.0,286047001.2,N
1587772275.9,286047001.2,N
1587772295.8,286047003.9,N
1587772315.6,286047006.5,N
1587772335.4,286047010.1,Y
1587772355.3,286047006.1,P
1587772375.1,286047008.4,P
1587772395.9,286047010.1,P
1587772415.7,286047012.0,Y
1587772435.5,286047005.9,P
1587772455.4,286047005.3,P
1587772475.2,286047007.3,P
1587772495.1,286047009.1,Y
1587772496.0,286047009.1,P
1587772515.8,286047005.7,P
1587772535.6,286047006.1,P
1587772555.5,286047006.5,Y
1587772575.3,286046999.7,P
1587772595.1,286047000.9,N
1587772615.9,286047000.0,N
1587772635.7,286047002.7,N
1587772655.6,286047002.6,N
1587772675.4,286047001.8,N
1587772695.2,286047001.8,N
1587772715.1,286047000.1,N
1587772716.0,286047000.1,N
1587772735.8,286047001.0,N
1587772755.6,286047000.7,N
1587772775.5,286047002.8,N
1587772795.3,286047002.6,N
